weather.gov     
National Weather Service

Regional Weather Roundup
NWS Homepage
This page is being discontinued on March 12, 2014.
The same data is available at this site. Please update your bookmarks.
Thank you, and we apologize for the inconvenience.
Please send an email to SR-SRH.Webmaster@noaa.gov with any concerns.


Current Version
Previous Version:    01  02  03  04  05  06  07  08  09  10  11  12  13  14  15  16  17  18  19  20  21  22  23  24  25  26  
[Printable]
703
ASUS45 KBOI 240410
RWRID
WEATHER ROUNDUP FOR IDAHO
NATIONAL WEATHER SERVICE BOISE ID
1000 PM MDT WED APR 23 2014

NOTE: "FAIR" INDICATES FEW OR NO CLOUDS BELOW 12000 FEET
WITH NO SIGNIFICANT WEATHER AND/OR OBSTRUCTIONS TO VISIBILITY

IDZ012-014-240500-
SOUTHWEST IDAHO


CITY           SKY/WX    TMP DP  RH WIND       PRES   REMARKS
BOISE          CLOUDY    53  30  41 SE9       29.96R
CALDWELL       CLOUDY    54  30  40 SE12      29.97R
MOUNTAIN HOME  CLOUDY    46  30  53 E6        29.98R
$$

IDZ016-017-240500-
SOUTHCENTRAL IDAHO


CITY           SKY/WX    TMP DP  RH WIND       PRES   REMARKS
BURLEY         CLOUDY    41  30  65 CALM      30.01R
JEROME         PTCLDY    40  24  53 E7        30.01R
TWIN FALLS     CLEAR     39  30  70 S8        30.01R WCI  33
$$

IDZ019>023-240500-
SOUTHEAST IDAHO


CITY           SKY/WX    TMP DP  RH WIND       PRES   REMARKS
IDAHO FALLS    PTCLDY    42  24  49 SW16      29.99R
POCATELLO      CLEAR     41  27  57 S10       30.03R
REXBURG        PTCLDY    41  21  44 SW15      29.97R
$$

IDZ006-010-011-018-031-032-240500-
CENTRAL IDAHO MOUNTAINS


CITY           SKY/WX    TMP DP  RH WIND       PRES   REMARKS
MCCALL         MOCLDY    36  30  79 SE7       29.94R WCI  30
HAILEY         PTCLDY    39  21  48 NW6       30.02R WCI  35
STANLEY          N/A     32  22  66 SE6       29.98S WCI  26
SALMON         PTCLDY    45  21  39 W8        29.90S
CHALLIS        PTCLDY    40  19  43 S3        29.95R
$$

IDZ002-004-006-007-026-240500-
NORTHERN IDAHO


CITY           SKY/WX    TMP DP  RH WIND       PRES   REMARKS
LEWISTON       CLOUDY    45  36  70 E8        29.90R
LOWELL           N/A     43  42  97 CALM      29.97S
COEUR D`ALENE  CLOUDY    41  36  81 S7        29.86F
MULLAN PASS    CLOUDY    27  27 100 VRB5      29.82R FOG     WCI  21
$$




U.S. Dept. of Commerce
NOAA National Weather Service
1325 East West Highway
Silver Spring, MD 20910
E-mail: w-nws.webmaster@noaa.gov
Page last modified: May 16, 2007
NATIONAL WEATHER SERVICE: for Safety, for Work, for Fun - FOR LIFE